Location: Tyler Bend Campground
(35.9875°N, 92.7606°W)
Time: 10:10:27
(UTC-05:00)

CZ-2C R/B - Visible Passes

Search period start: 30 July 2014 00:00
Search period end: 09 August 2014 00:00
Orbit: 669 x 787 km, 98.1° (Epoch: 29 July)

Date Brightness Start Highest point End Pass type
(mag) Time Alt. Az. Time Alt. Az. Time Alt. Az.
31 Jul 4.9 21:30:22 10° SW 21:33:11 16° W 21:36:01 10° NW visible
01 Aug 3.1 20:40:58 10° S 20:45:26 54° W 20:49:55 10° NNW visible
02 Aug 5.0 21:33:55 10° SW 21:36:27 15° W 21:39:00 10° WNW visible
03 Aug 3.2 20:44:15 10° S 20:48:40 49° W 20:53:06 10° NNW visible
04 Aug 5.1 21:37:30 10° WSW 21:39:43 13° W 21:41:57 10° WNW visible
05 Aug 3.4 20:47:33 10° S 20:51:54 45° W 20:56:18 10° NNW visible
06 Aug 5.1 21:41:09 10° WSW 21:42:59 12° W 21:44:50 10° WNW visible
07 Aug 3.6 20:50:51 10° S 20:55:08 41° W 20:59:29 10° NNW visible
08 Aug 5.2 21:44:56 10° WSW 21:46:15 11° W 21:47:34 10° WNW visible
